Retour au catalogue

USA 40 R/B DEB

ActifHEO
NORAD 23360·DEBRIS·🇺🇸 United States

Lancé Aug 8, 1989 depuis Cape Canaveral Space Force Station

Loading…

Prochains Passages (prochaines 24 heures)

TLE

FraisSource: Space-Track

Époque: Sep 12, 2026, 13:06 UTC

1 23360U 89061AG  26255.54624402  .00003236  00000-0  28584-2 0  9998
2 23360  56.9874 318.1880 3043846 210.3154 128.0373  8.77122610 78236

Suivez USA 40 R/B DEB en temps réel avec AllMySat

Download on the App Store